Regional Weather Roundup
Issued by NWS

Home | Current Version | Previous Version | Text Only | Print | Product List | Glossary Off
Versions: 1 2 3 4 5 6 7 8 9 10 11 12 13 14 15 16 17 18 19 20 21 22 23 24 25 26 27 28 29 30 31 32 33 34 35 36 37 38 39 40 41 42 43 44 45 46 47 48 49 50

000
ASUS43 KDTX 190101
RWRMI
MICHIGAN HOURLY REGIONAL WEATHER ROUNDUP
NATIONAL WEATHER SERVICE DETROIT/PONTIAC MI
800 PM EST SAT NOV 18 2017

NOTE: "FAIR" INDICATES FEW OR NO CLOUDS BELOW 12,000 FEET WITH NO
SIGNIFICANT WEATHER AND/OR OBSTRUCTION TO VISIBILITY.

MIZ047>049-052>055-059>063-066>070-074>076-081>083-190200-
SOUTHEAST LOWER MICHIGAN

CITY           SKY/WX    TMP DP  RH WIND       PRES   REMARKS
ADRIAN         FLURRIES  35  33  92 N18G25    29.38R WCI  24
ALMA           CLOUDY    37  36  96 NW12G18   29.48R WCI  29
ANN ARBOR      LGT SNOW  34  33  96 NW16G24   29.37R FOG     WCI  24
BAD AXE        FLURRIES  37  36  96 N16G28    29.39R WCI  27
CARO           LGT SNOW  35  34  96 NW13G20   29.40S WCI  26
DETROIT CITY   LGT RAIN  38  32  79 NW12G24   29.33R WCI  30
DETROIT        LGT SNOW  35  34  96 NW14      29.35R FOG     WCI  26
FLINT          LGT SNOW  33  32  96 NW14      29.41R FOG     WCI  23
GROSSE ILE     FLURRIES  37  35  92 N18G29    29.32R WCI  27
HILLSDALE      LGT SNOW  32  32 100 NW16G24   29.41R WCI  21
HOWELL         LGT SNOW  33  33 100 NW14G20   29.41R WCI  24

CITY           SKY/WX    TMP DP  RH WIND       PRES   REMARKS
JACKSON        LGT SNOW  34  32  92 NW12      29.42R FOG     WCI  25
LAMBERTVILLE   LGT RAIN  38  36  92 N16G22    29.36R WCI  29
LANSING        LGT RAIN  35  34  96 NW14      29.46R WCI  26
LAPEER         LGT SNOW  33  33  99 N12G18    29.37S WCI  25
MASON          FLURRIES  35  33  93 N12       29.43S WCI  27
MONROE         DRIZZLE   38  35  88 N17G25    29.34R WCI  29
MT. CLEMENS    LGT SNOW  34  34 100 NW13G22   29.31S FOG     WCI  25
PONTIAC        LGT SNOW  34  33  96 NW15      29.35R FOG     WCI  24
PORT HOPE        N/A     39  35  86 N13G30    29.36S WCI  31
PORT HURON     MIX PCPN  36  34  93 N9G16     29.32S WCI  29
TRI CITIES     LGT RAIN  36  35  96 NW14      29.45S WCI  27
MIDLAND        CLOUDY    37  35  92 NW7       29.45R WCI  31
TROY           FLURRIES  37  35  90 NW12G20   29.36S WCI  30
SAGINAW HB     MIX PCPN  34  32  93 NW13      29.43R WCI  25
$$
MIZ043>046-050>051-056>058-064>065-071>073-077>080-190200-
SOUTHWEST LOWER MICHIGAN

CITY           SKY/WX    TMP DP  RH WIND       PRES   REMARKS
BATTLE CREEK   CLOUDY    38  36  92 N16G22    29.49R WCI  29
BENTON HARBOR  CLOUDY    43  37  79 NW15G33   29.57R
BIG RAPIDS     CLOUDY    38  34  85 NW13      29.50R WCI  30
COLDWATER      DRIZZLE   37  37 100 N14G21    29.47R WCI  28
FREMONT        CLOUDY    39  37  91 NW15G23   29.55R WCI  31
HOLLAND        CLOUDY    41  36  82 N16G25    29.56R
GRAND RAPIDS   CLOUDY    40  38  93 NW12G23   29.51R WCI  33
IONIA          CLOUDY    38  36  94 NW8       29.48R WCI  32
KALAMAZOO      CLOUDY    39  35  86 NW14      29.51R WCI  31
LUDINGTON      CLOUDY    39  31  72 N12G22    29.59R WCI  32
MARSHALL       DRIZZLE   35  35  97 NW10G20   29.46R WCI  28
MOUNT PLEASANT CLOUDY    38  35  87 NW7       29.48R WCI  33
MUSKEGON       CLOUDY    41  35  79 NW17G26   29.57R
SOUTH HAVEN    LGT RAIN  43  39  86 N18G33    29.56R
$$
MIZ016>042-190200-
NORTHERN LOWER MICHIGAN

CITY           SKY/WX    TMP DP  RH WIND       PRES   REMARKS
ALPENA         LGT RAIN  37  35  92 N10       29.47R WCI  30
BEAVER ISLAND  CLOUDY    37  31  76 N14G26    29.58S WCI  29
BELLAIRE       CLOUDY    38  32  78 N7G18     29.55S WCI  33
CADILLAC       LGT RAIN  35  34  94 N10G21    29.51R WCI  28
CHARLEVOIX     LGT RAIN  39  33  78 NW23      29.58S WCI  28
FRANKFORT      LGT RAIN  38  35  86 N12G22    29.60R WCI  31
GAYLORD        CLOUDY    34  31  88 N8        29.50R WCI  27
GRAYLING       CLOUDY    35  32  89 NW12G21   29.50S WCI  27
HARBOR SPRINGS CLOUDY    36  32  87 CALM      29.55R
MANISTEE       CLOUDY    40  31  70 N16G23    29.59R WCI  31
OSCODA         CLOUDY    36  34  92 N13       29.43R WCI  28
PELLSTON       LGT RAIN  36  32  85 N12       29.55R WCI  28
ROGERS CITY    CLOUDY    38  32  80 N18G24    29.50R WCI  28
TRAVERSE CITY  LGT RAIN  38  33  82 N16G30    29.56R WCI  29
$$
MIZ007>008-015-190200-
EASTERN UPPER MICHIGAN

CITY           SKY/WX    TMP DP  RH WIND       PRES   REMARKS
KINROSS        CLOUDY    34  31  88 N9        29.53S WCI  27
MACKINAC ISLAN LGT SNOW  36  33  90 N15G24    29.54R WCI  26
NEWBERRY       CLOUDY    33  32  95 NW10G21   29.57S WCI  25
S. S. MARIE    CLOUDY    36  31  82 N9        29.53S WCI  29
MUNISING         N/A     33  33 100 N22G32    29.66R WCI  21
$$
MIZ004>006-011>014-085-190200-
CENTRAL UPPER MICHIGAN

CITY           SKY/WX    TMP DP  RH WIND       PRES   REMARKS
MANISTIQUE     CLOUDY    33  28  82 NW10G22   29.61S WCI  25
ESCANABA       LGT RAIN  33  26  75 NW12G18   29.67R WCI  24
MENOMINEE      CLOUDY    34  27  75 N10G23    29.70R WCI  26
SAWYER-GWINN   CLOUDY    28  25  86 NW18G25   29.68R WCI  16
$$
MIZ001>003-009>011-084-190200-
WESTERN UPPER MICHIGAN

CITY           SKY/WX    TMP DP  RH WIND       PRES   REMARKS
IRON MOUNTAIN  MIX PCPN  31  24  75 NW21G30   29.68S WCI  18
HOUGHTON       CLOUDY    27  20  75 NW21G26   29.73R WCI  13
COPPER HARBOR    N/A     31  25  78 NE25      29.72F WCI  17
IRONWOOD       FLURRIES N/A N/A N/A NW16G24   29.82R
$$

ABBREVIATIONS USED IN REMARKS
   TC - TEMPERATURE IN CELSIUS
  WCI - WIND CHILL INDEX
   HX - HEAT INDEX
  VSB - VISIBILITY





USA.gov is the U.S. government's official web portal to all federal, state and local government web resources and services.